User: anonymous   Login
Location: Unspecified
(0.0000°N, 0.0000°E)
Time: 21:34:59
(UTC+00:00)
Language:

SMS 2 - Orbit

View from above orbital plane
View from above orbital plane
View from above satellite
View from above satellite

Ground track
Ground track

The orbit data is extracted from the following two-line orbital elements,

1  7648U 75011A   18047.13570626 -.00000201 +00000-0 +00000-0 0  9993
2  7648 012.3809 318.8421 0008609 195.6752 332.9031 00.99509170105394
Epoch (UTC): 16 February 2018 03:15:25
Eccentricity: 0.0008609
inclination: 12.3809°
perigee height: 35965 km
apogee height: 36038 km
right ascension of ascending node: 318.8421°
argument of perigee: 195.6752°
revolutions per day: 0.99509170
mean anomaly at epoch: 332.9031°
orbit number at epoch: 10539

The dashed part of the orbit path shows where the satellite is in the earth's shadow,  

DLR